Flag for Canada Weather past 2 weeks in St. John's, Newfoundland and Labrador, Canada

Now
64 °F

Clear.


Feels Like: 64 °F
Forecast: 63 / 73 °F
Wind: 14 mph from Southwest

Location: St. John's

Current Time: Jul 25, 2014 at 12:13:08 AM

Latest Report: Jul 24, 2014 at 11:30 PM


Visibility: 15 mi

Pressure: 29.91 "Hg

Humidity: 88%

Dew point: 61 °F

Location of St. John'sLocation

Historic Weather in St. John's — Graph

°F

St. John's temperature yesterday

Maximum temperature yesterday: 77 °F (at 12:30 PM)
Minimum temperature yesterday: 63 °F (at 1:30 AM)
Average temperature yesterday: 69 °F

Past Weeks' High & Low Weather Summary

 TemperatureHumidityPressure
High84 °F (Jul 21, 2:30 PM)100% (Jul 10, 5:30 AM)30.26 "Hg (Jul 10, 5:30 AM)
Low48 °F (Jul 20, 1:30 AM)27% (Jul 21, 3:30 PM)29.78 "Hg (Jul 24, 4:30 AM)
Average68 °F75%30.04 "Hg
* Reported Jul 9 10:30 PM — Jul 24 10:30 PM, St. John's, Weather by CustomWeather, © 2014

Note: Actual official high and low records may vary slightly from our data, if they occured in-between our weather recording intervals... More about our weather records

Advertising

St. John's weather history for previous 24 hours

 ConditionsComfort  
Time TempWeatherWind HumidityBarometerVisibility
10:30 PM
Jul 24
66 °FClear.15 mph88%29.91 "Hg15 mi
9:30 PM68 °FPassing clouds.17 mph88%29.91 "Hg15 mi
8:30 PM70 °FScattered clouds.17 mph83%29.90 "Hg15 mi
7:30 PM72 °FPassing clouds.23 mph73%29.88 "Hg15 mi
6:30 PM73 °FPassing clouds.18 mph65%29.87 "Hg15 mi
5:30 PM75 °FScattered clouds.22 mph69%29.85 "Hg15 mi
4:30 PM75 °FPassing clouds.22 mph74%29.84 "Hg15 mi
3:30 PM77 °FPassing clouds.28 mph69%29.83 "Hg15 mi
2:30 PM77 °FPassing clouds.23 mph65%29.83 "Hg15 mi
1:30 PM77 °FScattered clouds.24 mph69%29.83 "Hg15 mi
12:30 PM77 °FScattered clouds.15 mph69%29.83 "Hg15 mi
11:30 AM73 °FScattered clouds.23 mph74%29.83 "Hg15 mi
10:30 AM72 °FScattered clouds.16 mph78%29.83 "Hg15 mi
9:30 AM70 °FPartly sunny.25 mph83%29.80 "Hg12 mi
8:30 AM66 °FLow clouds.22 mph94%29.80 "Hg10 mi
7:30 AM64 °FLow clouds.23 mph94%29.80 "Hg8 mi
6:30 AM63 °FLow clouds.23 mph100%29.80 "Hg8 mi
5:30 AM63 °FLow clouds.26 mph94%29.79 "Hg15 mi
4:30 AM63 °FPartly cloudy.29 mph88%29.78 "Hg15 mi
3:30 AM63 °FPassing clouds.20 mph83%29.80 "Hg15 mi
2:30 AM63 °FPassing clouds.29 mph83%29.78 "Hg15 mi
1:30 AM63 °FPassing clouds.24 mph83%29.79 "Hg15 mi
12:30 AM64 °FPassing clouds.25 mph78%29.79 "Hg15 mi
Weather by CustomWeather, © 2014

See weather overviewHow to use our weather pages